Vorticity
3 3 2 -2 -5 -4 2 1 2 3 4 -2 -2 8 4 12 -3 -4 19 2 2 9 1 3 14 7 -5 5 6 13 -0 -8 5 -7 3 5 -4 3 -4 -3 -3 -2 5 3 4 4 3 4 4 3 2 4 4 4 4 3 4 3 6 6 7 8 8 8 7 8 8 9 9 8 6 6 6 6 6 5 4 4 5 6 7 8 8 8 8 8 6 7 7 8 8 9 10 9 9 7 5
11 8 3 0 -1 0 0 -4 -2 1 5 3 -2 2 3 12 -13 -19 21 7 -2 7 6 12 9 -1 -2 5 6 24 18 -4 3 -0 -1 1 -2 0 -3 1 1 -0 5 6 5 4 4 3 3 4 1 3 4 5 5 4 4 3 5 5 6 7 8 8 7 8 8 9 9 8 7 6 6 5 6 5 4 4 5 5 6 7 7 8 8 8 7 7 7 7 8 8 10 10 9 7 5
14 10 7 2 2 2 0 -2 -4 -3 1 8 6 0 1 10 -10 -17 16 4 -7 4 4 8 1 -3 -3 3 10 19 29 2 -21 -6 1 1 3 -1 0 3 1 -0 1 6 8 6 6 4 3 3 2 2 3 4 6 5 4 4 5 5 6 6 7 7 7 9 8 9 9 8 7 6 6 5 5 5 5 4 4 5 5 6 6 7 8 8 7 8 8 7 8 9 9 9 8 7 5
11 13 16 9 13 7 -1 5 1 -3 -4 7 14 5 -2 10 7 -14 -6 0 3 11 10 13 8 9 5 3 10 1 27 32 -13 -6 6 0 3 -3 1 1 2 5 2 4 6 8 7 7 5 3 4 2 3 3 4 6 4 4 4 5 6 6 6 6 6 8 9 9 9 9 7 7 6 5 5 5 5 5 4 4 5 5 6 5 6 8 8 8 8 8 8 8 9 9 8 6 4
5 9 14 15 36 27 2 7 8 2 -3 1 6 6 -1 2 19 5 -6 -2 -5 1 9 18 13 12 15 5 7 2 18 32 3 5 6 -4 2 -3 -0 2 2 1 -0 5 4 8 9 8 6 2 3 3 4 4 5 5 5 5 4 5 6 6 5 5 5 6 9 9 9 8 8 7 7 6 5 5 4 5 5 4 5 5 5 5 5 6 7 8 8 8 8 8 8 8 7 6 4
3 4 6 6 27 32 13 11 8 2 3 3 -3 6 5 -4 14 12 1 9 -2 -12 -4 9 12 4 10 5 1 11 17 15 4 8 4 -5 3 1 4 4 -0 -5 -1 7 5 7 10 9 6 2 1 2 4 3 5 5 6 5 4 5 5 7 4 4 4 5 8 9 9 8 8 7 7 7 5 5 4 5 5 5 5 5 5 4 4 5 6 7 7 8 7 7 7 7 7 6 5
4 2 4 0 4 15 16 17 20 10 4 4 1 1 -2 -2 5 2 -2 11 13 -5 -6 4 12 6 4 8 -1 5 14 14 6 0 2 0 2 3 4 5 1 -2 2 7 6 8 10 10 5 2 0 -1 3 3 6 5 6 6 5 5 6 7 5 4 4 4 6 7 9 8 8 8 7 7 6 5 5 5 5 5 5 4 4 4 4 4 5 6 7 7 7 7 6 7 7 6 6
3 2 4 4 2 3 4 8 32 33 14 3 4 -4 -14 4 -2 -9 -6 -5 13 2 -5 8 18 16 7 15 14 8 7 6 3 -1 3 2 2 5 2 2 1 -2 4 9 7 8 9 9 5 1 0 -2 0 3 5 6 6 6 6 5 5 8 6 4 4 4 5 6 9 8 8 8 8 7 7 6 5 5 5 5 5 5 4 4 4 3 4 5 6 7 7 7 7 7 6 6 6
1 4 3 5 6 5 1 -4 15 28 31 14 2 -1 -19 -2 -2 -7 -5 -17 9 8 -8 5 19 20 8 17 25 17 5 -2 1 -0 -0 0 2 4 2 1 -0 -2 1 7 6 8 10 8 5 2 -0 -2 -1 2 5 6 7 6 7 6 6 8 7 4 4 4 4 6 7 8 9 8 8 7 7 7 6 5 5 5 5 5 5 4 4 3 4 4 5 6 7 7 8 8 7 6 6
1 4 1 5 8 9 5 -5 -1 4 43 44 0 -0 -15 -16 -4 -3 -0 -13 -2 10 4 1 11 21 10 10 18 14 2 -5 -1 -2 -4 0 5 3 1 -0 -2 0 6 9 5 6 10 7 5 3 0 -2 -2 1 5 7 7 6 6 7 8 9 8 5 4 3 2 4 7 7 8 8 8 8 7 7 6 6 5 5 5 5 5 5 5 4 3 3 4 5 6 6 7 8 8 8 7
1 4 2 5 7 11 5 -4 1 -7 36 62 7 -2 -1 -12 -4 -8 -3 4 -5 -7 2 4 7 12 9 9 11 10 -1 -9 -7 -1 2 0 7 5 -0 1 -1 5 11 6 1 3 6 6 4 3 1 -0 -2 -0 5 8 8 6 6 7 11 14 10 7 4 2 1 4 7 6 7 9 9 8 8 7 7 6 5 5 5 5 5 6 5 5 4 3 4 4 5 5 6 7 7 9 9
2 3 3 7 7 7 5 -0 4 -6 13 48 24 0 1 -3 -1 -5 -6 5 -2 -13 -4 6 5 -3 -0 8 10 13 8 -2 -8 -4 5 5 8 5 1 3 2 4 2 -6 -2 3 4 6 5 4 3 1 -1 -1 4 8 9 6 5 9 14 20 17 11 8 5 6 7 7 6 7 8 9 9 7 7 7 6 6 5 4 5 5 6 6 6 5 4 4 3 4 4 4 4 5 7 8
3 2 3 8 7 2 6 6 3 -1 -4 21 37 12 -3 -6 -8 5 7 -0 -8 -7 4 2 3 1 -0 9 13 13 11 8 3 -2 4 6 3 5 7 4 2 2 -2 -0 7 3 0 4 4 5 4 1 -1 -2 2 7 11 7 5 9 13 19 19 15 12 11 10 8 7 7 8 8 8 8 7 7 7 7 6 5 5 5 5 6 6 6 6 5 5 4 4 4 4 3 4 5 6
4 2 5 6 5 6 8 7 4 5 -4 1 35 32 8 -7 -12 4 12 4 -7 -6 6 -4 -4 6 2 6 13 13 13 13 8 6 8 8 2 2 4 -0 2 1 2 10 7 -1 -1 0 2 6 4 2 -0 -2 0 5 11 10 5 6 7 9 10 8 8 9 8 6 6 6 7 7 8 8 8 7 7 8 6 5 5 5 6 6 6 6 6 6 6 6 5 5 4 3 3 4 5
4 2 6 7 5 11 8 4 4 10 6 -9 15 40 29 3 -11 -5 -3 -3 -3 -1 5 -6 -9 4 8 3 3 8 14 17 11 6 6 10 7 2 2 1 3 1 5 10 -0 -2 1 -1 4 9 5 2 0 -1 -1 2 9 13 8 2 1 1 -1 -4 -3 3 6 6 6 6 7 7 7 7 7 8 8 9 7 6 5 5 6 6 7 7 6 6 6 7 6 6 5 4 4 5 5
5 3 5 10 7 10 6 3 2 8 11 -5 -1 24 34 19 -2 -9 -12 -11 -6 7 7 -8 -9 -7 3 6 -1 2 8 17 16 4 3 11 12 9 8 4 4 5 4 0 -2 1 -3 0 12 10 6 3 -1 -1 -1 1 6 12 13 5 1 -1 -5 -7 -7 -0 5 5 5 5 7 6 6 8 8 8 8 9 9 7 7 6 6 7 7 7 6 5 5 7 8 7 6 6 6 5 4
4 5 8 8 6 7 6 6 3 5 7 -0 -5 1 17 20 17 3 -13 -9 -11 7 12 -11 -1 -3 -6 9 2 -3 1 11 15 3 -1 7 13 13 10 7 7 6 -2 -4 6 5 -8 2 17 11 5 2 -1 -1 -2 0 3 8 13 11 6 1 -2 -3 -5 -2 3 6 5 4 5 6 5 7 8 9 8 9 10 9 8 7 7 7 7 7 7 5 4 6 6 6 7 8 7 6 5
4 6 8 6 7 5 3 4 1 3 4 3 -4 -8 5 5 27 36 1 -7 -20 -2 24 -9 -3 10 -4 3 3 -2 -4 1 9 5 1 1 6 7 4 5 2 -2 1 6 10 2 -7 8 19 10 4 2 -0 -1 -2 -1 2 5 9 11 11 7 2 1 -1 -1 4 7 7 5 4 4 5 5 5 7 8 9 10 11 10 8 7 7 7 6 7 6 5 6 6 6 7 7 7 6 5
5 5 7 7 7 2 1 3 0 5 4 5 -0 -7 7 -2 18 52 21 -2 -19 -11 21 -5 -9 12 4 3 2 2 1 1 1 -0 8 7 -2 -5 -5 -4 -5 3 12 4 -1 0 1 15 20 9 4 2 0 -2 -2 -1 1 4 7 9 10 10 8 5 5 4 5 7 8 8 5 4 4 4 4 5 7 9 11 11 10 9 8 7 7 7 8 6 5 5 6 7 7 6 7 6 6
6 4 7 7 4 3 3 3 2 5 3 4 7 -5 4 2 5 43 36 -1 -21 -12 4 -11 -14 -3 2 7 1 -1 3 5 -0 -8 7 14 1 -7 -5 -2 0 7 5 -8 -6 0 5 19 20 7 3 2 1 -2 -2 -1 -0 3 5 9 9 9 10 8 8 7 6 6 6 8 7 5 5 4 5 5 6 8 10 10 10 10 9 8 8 8 7 6 5 5 6 6 6 6 7 6 6
6 4 5 3 1 5 4 6 5 2 4 4 8 2 -0 3 -1 28 51 15 -23 -16 -1 -6 -6 -4 -1 5 5 -1 -6 -1 3 -4 -5 4 10 5 2 5 7 3 -6 -5 1 -5 2 20 17 4 1 2 1 -2 -2 -1 -1 2 5 8 10 7 8 10 9 7 6 5 5 6 6 6 6 5 5 7 8 8 8 8 9 9 8 8 8 7 7 6 6 5 6 6 5 7 6 6 6
6 4 1 1 2 5 3 6 5 -1 5 3 5 9 0 1 4 16 46 47 5 -27 -29 -22 -20 -20 -15 -4 7 4 -1 3 6 5 -7 -8 9 15 12 4 -1 -0 -8 -3 2 -8 2 16 11 3 1 2 1 -2 -1 -1 -1 1 5 9 10 7 7 9 10 7 6 5 5 5 5 7 6 5 8 11 9 8 7 6 8 9 7 7 7 7 6 6 6 6 6 5 6 6 6 7 8
4 3 2 4 2 4 5 4 2 1 4 5 6 6 -0 -2 7 8 13 37 38 4 -14 -1 1 -19 -23 -14 -4 5 8 8 4 5 3 -4 -2 -4 -3 -7 -7 3 -2 -1 2 -3 5 13 9 3 0 1 1 -1 -1 -1 -1 0 4 9 10 8 7 9 9 7 6 5 4 4 5 7 6 7 12 12 7 7 6 6 8 6 5 6 7 7 7 6 6 6 7 7 7 7 8 10 11
4 4 4 4 4 3 4 3 2 4 2 4 5 3 5 -0 0 4 -1 5 19 19 10 32 52 25 9 4 -8 2 7 5 8 8 8 6 0 -12 -8 3 6 12 13 17 16 9 12 11 6 2 0 3 1 -1 -0 -1 -1 -1 3 9 10 8 7 8 9 7 7 5 4 5 5 7 9 10 11 7 4 6 5 7 7 3 4 6 7 8 7 7 8 7 8 8 8 9 10 11 11
3 5 7 3 5 4 3 5 4 5 4 3 3 4 10 5 0 2 5 3 -2 9 13 32 55 23 1 -4 -18 -2 4 -2 4 4 4 2 -4 -5 7 20 13 9 18 24 20 14 11 6 4 2 -0 1 1 -2 -1 0 -2 -1 3 7 10 8 8 8 9 9 7 4 4 5 6 9 13 11 6 3 5 7 5 7 5 3 7 7 8 9 7 8 8 7 8 9 9 11 13 11 9
6 5 7 5 4 4 4 5 5 6 5 4 3 5 11 6 2 2 6 7 -1 9 13 20 43 27 3 -7 -17 -3 7 1 -2 -6 -3 -4 -4 6 20 27 18 15 24 21 13 11 9 5 3 1 -0 -0 0 -2 -0 1 -2 -1 3 8 10 8 9 8 7 10 6 4 5 5 8 13 14 12 7 5 7 7 6 7 5 6 8 9 11 10 8 8 6 7 9 9 11 13 12 8 6
12 11 7 6 5 3 3 3 4 6 5 6 5 4 11 5 -2 2 4 3 1 7 9 9 26 35 33 30 16 9 10 13 11 8 13 17 20 22 23 23 20 23 25 15 8 9 8 5 2 1 1 -1 -1 -0 1 1 -2 -1 3 8 10 7 9 8 7 9 5 5 6 6 12 14 13 12 11 9 8 9 6 6 7 8 7 9 12 10 8 6 5 9 10 10 12 11 8 6 8
12 14 11 7 7 4 3 4 2 3 5 4 6 5 5 4 3 3 -1 2 1 -5 5 11 6 6 13 24 23 11 6 9 12 17 22 24 19 13 12 15 19 20 15 8 7 10 9 7 5 2 0 -1 0 2 1 0 -2 -0 3 8 10 6 7 8 9 8 4 6 8 9 12 12 11 13 13 10 9 9 4 4 7 8 10 11 10 8 7 5 7 9 9 10 10 8 7 9 9
14 14 15 10 10 8 4 5 3 2 4 2 8 11 4 6 15 10 -2 4 6 -5 0 7 4 1 -2 3 8 4 3 2 2 4 6 10 10 6 6 11 17 12 4 6 8 8 10 9 5 2 0 1 3 2 0 0 -2 -0 4 10 10 6 6 8 9 7 5 8 10 11 12 11 13 14 12 9 8 7 4 5 8 11 15 10 6 7 6 6 10 10 9 9 7 6 8 9 9
20 17 17 13 10 9 6 5 6 4 3 4 7 8 6 10 18 14 3 4 7 3 3 4 8 6 -5 -6 -7 -7 5 10 6 2 1 4 3 5 10 10 4 -8 -7 5 8 6 4 5 5 3 4 4 2 2 1 -2 -2 1 5 10 10 6 6 8 10 7 5 10 12 12 13 13 13 11 8 7 8 6 5 8 10 16 15 4 3 8 9 10 13 11 10 8 5 7 8 8 10
16 17 18 17 12 11 10 8 7 7 3 5 8 4 4 8 12 14 9 6 5 1 -3 -2 3 -2 -9 -3 -6 -6 7 11 10 5 3 2 -7 -4 5 7 -5 -18 -7 9 11 7 3 3 5 3 4 2 1 1 0 -1 -0 4 8 9 8 7 6 7 9 7 7 12 13 13 14 15 13 8 6 7 8 7 8 9 12 16 9 -1 3 10 12 13 12 11 8 5 6 8 9 10 10
11 13 16 15 16 14 10 11 8 7 6 6 8 4 3 6 8 9 4 5 5 -2 -5 -3 -1 -6 -7 0 1 6 7 1 7 7 3 3 -1 -4 -10 -9 -7 -9 2 11 7 5 5 5 3 3 4 2 2 3 1 1 1 5 9 9 8 8 6 7 9 8 10 13 12 12 13 15 11 6 6 8 8 7 7 9 14 14 4 -1 6 11 12 12 10 9 5 5 7 8 10 11 9
12 11 14 10 16 18 9 12 12 8 9 8 8 5 3 5 4 3 1 5 6 2 0 -1 4 2 -1 3 2 7 9 -1 -1 2 2 2 6 13 4 -9 -4 2 5 5 2 0 1 2 1 2 3 2 4 5 3 -0 -0 5 10 11 9 7 6 8 9 9 12 12 10 11 11 11 8 5 8 8 6 6 7 11 15 11 1 1 9 9 7 7 8 6 3 6 9 9 11 10 9
13 13 14 8 13 22 15 13 16 14 13 10 9 9 7 4 2 4 4 2 3 5 3 -1 6 8 -4 -3 2 6 8 -1 -7 -6 -3 -3 -1 16 19 6 5 8 2 -3 -3 -2 -2 -3 -2 -0 2 3 3 3 2 -2 -2 5 10 11 8 5 8 9 9 11 12 11 8 10 11 9 6 8 9 7 5 6 8 10 11 7 2 5 9 7 5 6 7 5 5 9 10 12 12 9 9
15 20 20 13 10 20 23 18 16 17 19 15 12 11 7 3 3 5 5 1 1 5 8 2 5 15 4 -6 1 4 1 -3 -5 -5 -4 -0 1 1 10 14 12 6 -0 -6 -8 -5 -2 -3 -2 1 1 1 -0 -0 -1 -2 1 5 9 12 6 5 10 9 10 11 10 10 8 10 11 7 7 10 9 6 6 7 7 8 7 6 6 7 7 6 7 9 9 8 8 10 11 13 12 9 8
19 21 22 18 11 12 22 24 18 13 18 19 16 14 8 5 5 4 3 5 6 9 15 9 -2 4 5 -4 -2 1 1 -4 -5 1 0 4 5 -9 -7 5 1 -6 -6 -3 -2 -2 -1 2 2 2 2 2 2 4 3 4 6 5 9 11 5 6 10 10 10 10 9 8 6 8 9 8 7 8 8 8 8 4 4 7 8 8 7 6 7 8 8 10 10 10 10 10 10 11 10 8 8
21 16 17 17 14 8 12 22 23 13 14 19 20 22 13 5 6 5 3 6 9 9 15 18 3 -9 -14 -16 -9 -3 1 -1 -2 6 3 -1 3 -6 -12 -8 -13 -18 -20 -17 0 9 2 3 3 -0 2 5 7 8 6 6 7 6 9 8 4 8 11 11 11 9 9 7 6 9 10 10 9 7 8 8 7 4 3 7 9 8 5 5 8 10 8 9 10 11 11 11 10 9 8 6 8
24 16 15 14 15 12 8 14 21 14 13 17 20 26 17 6 8 7 4 7 9 9 11 11 5 0 -4 -7 1 2 -2 1 1 4 4 -4 -4 -6 -9 -10 -12 -4 -4 -20 -10 10 7 2 2 0 3 6 7 7 3 3 8 9 8 5 6 10 11 12 12 9 7 7 9 11 12 13 11 8 8 9 9 6 4 6 8 6 6 8 10 9 6 8 10 9 9 9 9 9 7 7 10
27 18 15 14 13 14 11 10 17 15 14 14 14 25 21 6 9 10 9 11 10 11 12 4 -0 5 6 1 6 6 -3 -2 -1 -2 -0 -8 -12 -8 -5 -3 -3 9 14 -9 -16 6 12 5 4 3 4 6 6 5 -0 -0 9 11 5 5 8 10 11 12 11 8 6 6 6 9 14 14 10 6 6 7 8 7 4 5 5 4 7 11 10 5 4 8 9 6 4 7 11 10 9 10 13
28 20 16 16 11 12 14 11 14 17 19 16 10 21 24 11 13 16 14 16 13 11 10 8 6 6 9 7 2 3 -0 -1 2 -0 -2 -4 -1 4 2 6 8 4 3 -10 -12 8 14 8 8 6 5 7 6 4 2 0 6 10 4 5 9 9 12 12 9 7 5 3 3 8 13 10 6 6 7 9 8 6 5 4 2 3 10 12 7 1 2 8 9 5 3 8 13 13 12 13 11
29 24 19 19 10 8 14 12 11 15 23 22 10 14 21 14 15 15 11 11 9 8 9 17 21 7 7 17 8 3 6 4 3 3 2 0 1 1 -3 1 3 1 2 -4 -2 15 17 10 8 7 6 8 8 6 5 3 4 8 6 6 10 11 13 12 8 6 3 3 4 8 11 9 6 7 11 14 11 8 8 5 2 4 10 11 6 2 3 8 10 7 6 8 14 15 12 11 8
29 25 22 22 13 7 11 13 12 15 23 25 16 14 16 11 10 10 10 12 6 3 6 17 28 12 -3 4 5 1 1 1 2 3 3 1 -1 0 1 2 1 3 8 7 11 20 16 10 10 9 11 11 8 6 7 6 4 6 7 7 11 14 13 10 6 5 4 3 5 6 10 10 6 4 8 10 10 10 10 9 5 6 13 12 7 5 5 8 9 9 9 7 10 15 11 8 7
25 27 26 23 15 10 10 11 11 13 21 25 19 18 19 13 14 14 11 14 11 7 11 12 16 12 -3 -5 2 2 -0 0 2 2 2 2 4 6 4 6 9 9 11 14 17 17 12 14 14 13 14 11 8 10 9 8 7 6 7 9 14 15 11 8 6 5 4 5 6 8 10 10 7 7 7 6 7 9 11 11 7 7 12 12 8 6 6 10 9 6 8 7 9 12 10 6 5
21 21 27 30 18 10 11 10 9 10 17 25 21 17 21 15 13 17 12 14 14 8 12 10 2 5 4 1 3 6 6 5 4 4 4 2 2 4 4 6 8 8 12 15 13 14 17 19 15 13 15 10 10 14 9 7 10 9 7 11 16 13 8 5 5 5 5 7 9 9 10 10 9 9 7 6 9 10 10 9 7 8 12 13 11 6 6 9 8 5 7 10 11 10 8 6 4
29 17 21 37 25 11 12 10 13 12 13 26 22 8 15 17 8 10 14 23 28 16 7 2 -4 2 7 7 7 4 4 4 3 4 3 2 3 4 5 5 6 8 12 11 7 10 15 14 12 12 13 10 9 9 5 6 10 10 10 14 15 9 4 5 5 6 7 9 11 11 9 7 7 7 7 9 10 9 9 8 10 11 10 16 15 5 4 9 10 13 12 11 12 9 7 5 3
29 21 19 36 30 17 10 10 20 11 -4 15 26 6 6 21 11 3 7 15 22 15 6 0 -3 4 8 6 9 8 6 4 4 5 4 7 7 4 5 6 10 14 12 8 3 4 9 10 11 11 11 11 9 6 4 6 10 12 13 15 14 7 4 6 8 9 10 10 10 10 8 8 8 9 9 9 8 6 7 8 11 11 8 13 14 3 3 10 12 13 11 9 10 9 6 4 3
12 17 21 31 31 24 15 13 20 14 -2 8 30 14 -0 17 19 5 1 6 18 18 11 8 5 7 8 6 7 8 10 10 8 9 8 8 6 5 9 11 12 15 11 6 3 5 8 6 6 10 12 12 11 9 8 9 12 14 14 15 14 8 5 7 8 10 10 10 10 10 11 11 10 9 8 7 6 6 8 7 6 11 12 12 11 5 5 11 11 8 8 9 9 8 6 3 4
-2 7 16 24 27 25 25 22 16 24 18 6 25 24 2 12 17 5 -3 -5 11 24 15 11 11 9 8 8 9 7 7 8 6 6 5 5 7 10 11 10 12 16 11 6 5 5 2 -2 4 10 11 12 12 10 10 12 13 14 15 15 11 6 4 6 8 11 11 11 11 11 10 8 7 7 6 7 8 8 10 10 8 13 16 14 11 6 6 10 10 8 9 10 8 7 5 3 4
-2 3 8 20 24 15 18 22 16 31 29 7 21 25 8 16 12 2 3 -10 -7 11 11 10 10 11 11 7 8 7 6 7 6 5 5 6 8 8 8 8 13 15 9 5 8 7 -1 -4 4 9 9 12 12 11 12 13 13 15 16 13 7 4 4 6 9 10 10 10 9 8 7 7 7 8 9 10 10 10 12 12 12 14 14 14 12 6 7 10 7 6 9 10 9 8 5 2 4
1 4 5 20 26 10 7 13 12 30 34 14 11 4 5 26 19 5 7 -3 -6 1 5 14 15 14 16 11 8 9 6 6 6 5 6 7 6 4 6 7 9 8 5 6 11 11 4 1 5 8 8 10 10 10 11 12 14 16 15 10 5 4 5 7 9 10 10 9 8 8 8 9 10 10 10 10 8 9 12 11 10 10 10 11 9 4 7 9 5 5 10 11 9 8 5 2 4
0 3 1 17 27 13 8 7 6 25 37 20 -7 -18 8 26 17 15 12 1 4 2 1 11 13 13 17 16 15 15 12 8 7 6 5 5 4 4 6 7 8 8 7 10 13 11 7 5 6 6 4 6 8 9 10 13 15 15 12 7 4 5 6 7 9 10 10 8 8 8 8 8 9 8 7 5 4 7 11 11 11 11 10 9 8 7 9 9 6 8 12 11 8 8 6 3 3
7 2 -7 14 26 18 12 5 4 17 36 33 -13 -23 22 24 6 23 21 12 23 18 6 3 5 16 20 18 20 17 13 8 5 7 7 7 7 5 8 8 8 8 8 10 10 9 10 9 7 5 4 5 7 8 10 14 15 13 9 6 4 6 7 8 10 10 9 8 7 7 7 7 7 7 6 5 7 10 12 14 14 13 10 8 8 10 11 10 9 11 12 11 9 8 5 2 3
15 5 -11 11 27 24 17 6 1 5 33 50 -6 -23 34 31 12 32 22 16 33 26 14 5 3 10 4 5 19 16 8 6 7 10 8 9 11 9 10 9 6 8 9 9 9 11 14 12 7 4 4 7 8 8 11 13 14 11 7 5 6 7 7 9 11 9 8 8 7 7 6 6 7 7 9 10 10 11 14 17 15 11 10 9 10 11 11 9 9 11 12 11 10 7 4 3 4
9 12 -3 6 24 28 16 2 1 -0 25 53 5 -17 29 23 11 32 20 14 27 25 28 21 7 5 -2 1 15 13 8 8 11 13 11 14 15 11 10 9 8 10 9 8 9 12 14 10 6 3 4 8 9 8 10 12 12 9 6 6 6 6 9 11 10 8 8 8 7 7 4 5 7 8 10 12 12 13 15 16 13 9 10 12 13 12 11 8 7 10 12 11 10 6 3 4 4
2 16 8 2 14 27 15 -2 4 2 12 42 21 -7 16 22 17 23 13 13 21 24 33 24 7 10 11 9 10 8 8 8 11 11 11 17 17 11 8 7 8 8 5 6 8 9 11 7 5 5 6 9 8 8 11 12 12 9 6 6 5 8 10 10 9 7 7 7 7 6 5 5 7 9 11 11 12 13 13 13 11 10 12 13 14 12 8 6 7 10 12 11 9 5 4 5 5
2 10 16 5 3 21 22 -1 2 11 7 26 32 7 3 16 20 12 2 3 5 12 23 16 9 17 20 16 13 12 11 10 12 10 8 16 18 13 10 7 7 6 4 7 8 8 11 10 8 7 8 8 7 8 11 13 12 9 6 5 6 8 10 9 8 7 6 7 7 5 5 6 6 7 10 10 11 11 10 11 11 9 10 10 11 10 7 6 8 11 12 11 8 5 4 5 6
6 7 18 15 3 13 23 2 -2 17 15 14 33 26 3 2 11 11 9 5 -5 1 9 3 3 17 26 24 17 15 15 11 11 7 9 23 26 18 13 8 6 5 4 4 5 6 10 11 10 6 4 6 7 9 11 12 12 7 6 6 6 7 10 9 8 6 6 7 7 6 5 5 5 7 9 10 11 10 8 7 6 5 7 8 9 8 8 10 11 11 12 11 7 5 5 6 7
16 12 18 21 9 5 13 9 4 15 17 15 34 36 8 -5 1 3 9 12 4 4 7 0 2 11 16 16 14 14 14 14 14 9 8 20 24 18 14 9 5 5 5 3 1 4 7 10 10 5 1 4 7 9 10 12 11 7 5 5 6 7 9 9 7 6 7 8 7 7 5 4 5 6 8 9 9 10 10 7 6 7 9 11 10 10 11 14 14 13 11 8 6 6 6 7 7
Height
5868 5868 5869 5871 5872 5874 5874 5875 5877 5877 5880 5884 5885 5886 5886 5886 5886 5884 5883 5884 5885 5884 5884 5886 5887 5887 5887 5886 5888 5889 5890 5889 5885 5884 5887 5889 5893 5895 5896 5897 5897 5897 5897 5897 5897 5897 5897 5896 5896 5896 5895 5895 5894 5892 5891 5890 5889 5888 5887 5885 5884 5883 5882 5881 5880 5880 5880 5879 5879 5879 5878 5877 5877 5876 5876 5875 5874 5873 5873 5872 5871 5870 5870 5869 5869 5868 5867 5866 5866 5865 5864 5864 5863 5863 5863 5862 5862
5865 5865 5867 5868 5869 5872 5872 5873 5875 5875 5877 5882 5884 5885 5885 5885 5883 5881 5881 5883 5884 5884 5884 5884 5885 5886 5886 5886 5886 5886 5887 5889 5886 5884 5884 5886 5891 5894 5895 5896 5896 5897 5897 5897 5897 5897 5896 5896 5896 5896 5895 5895 5893 5892 5891 5890 5889 5888 5887 5885 5884 5883 5882 5881 5880 5880 5879 5879 5879 5878 5878 5877 5876 5876 5876 5875 5874 5873 5873 5872 5871 5870 5870 5869 5869 5868 5867 5867 5866 5865 5864 5863 5863 5863 5862 5862 5862
5861 5862 5863 5865 5867 5869 5870 5871 5873 5874 5875 5879 5883 5884 5883 5882 5878 5877 5880 5882 5884 5884 5884 5884 5884 5886 5886 5886 5886 5885 5885 5887 5886 5884 5884 5885 5890 5893 5894 5895 5895 5896 5896 5896 5896 5896 5896 5896 5896 5895 5895 5894 5893 5892 5891 5890 5889 5888 5887 5885 5884 5883 5882 5881 5880 5879 5879 5879 5878 5878 5877 5877 5876 5876 5875 5875 5874 5873 5873 5872 5871 5870 5870 5869 5869 5869 5868 5867 5866 5865 5864 5863 5863 5863 5862 5862 5862
5857 5859 5860 5862 5864 5866 5867 5867 5870 5872 5872 5877 5881 5882 5881 5879 5876 5876 5878 5880 5883 5883 5883 5883 5883 5884 5885 5885 5884 5884 5884 5885 5884 5884 5883 5885 5889 5892 5893 5894 5895 5895 5896 5896 5895 5895 5895 5895 5895 5895 5895 5894 5893 5892 5891 5890 5889 5888 5886 5885 5884 5883 5881 5880 5880 5879 5879 5878 5878 5878 5877 5876 5876 5875 5875 5874 5874 5873 5872 5872 5871 5870 5870 5869 5869 5869 5868 5867 5866 5865 5865 5864 5863 5863 5862 5862 5862
5854 5855 5856 5859 5860 5861 5863 5862 5865 5868 5870 5876 5879 5879 5879 5877 5875 5875 5875 5875 5878 5881 5881 5881 5882 5882 5882 5882 5882 5882 5883 5884 5883 5882 5883 5885 5888 5891 5892 5893 5894 5895 5895 5895 5895 5895 5895 5895 5895 5894 5894 5894 5893 5891 5890 5889 5888 5887 5886 5885 5884 5882 5881 5880 5880 5879 5879 5878 5877 5877 5877 5876 5875 5875 5875 5874 5873 5873 5872 5871 5871 5870 5869 5869 5869 5868 5868 5867 5866 5865 5865 5864 5863 5863 5862 5862 5862
5851 5852 5852 5855 5857 5857 5859 5858 5860 5864 5869 5874 5876 5878 5878 5876 5873 5874 5873 5871 5873 5877 5879 5881 5881 5881 5880 5880 5881 5882 5883 5883 5882 5881 5882 5885 5887 5890 5891 5892 5893 5894 5894 5894 5894 5894 5894 5894 5894 5894 5894 5893 5892 5891 5890 5889 5887 5886 5885 5885 5884 5882 5881 5880 5879 5879 5878 5877 5877 5876 5876 5875 5875 5875 5874 5874 5873 5873 5872 5871 5870 5870 5869 5869 5869 5868 5868 5867 5866 5865 5865 5864 5863 5863 5862 5862 5861
5848 5849 5848 5850 5853 5855 5855 5855 5857 5860 5866 5872 5873 5876 5877 5875 5873 5872 5872 5869 5869 5872 5876 5879 5879 5880 5879 5878 5879 5881 5882 5882 5881 5881 5883 5885 5887 5889 5890 5891 5892 5893 5893 5893 5894 5893 5894 5893 5893 5893 5893 5893 5892 5891 5890 5888 5887 5886 5885 5884 5883 5882 5881 5880 5879 5878 5878 5877 5876 5875 5875 5875 5874 5874 5874 5873 5873 5872 5872 5871 5870 5870 5869 5869 5868 5868 5868 5867 5866 5865 5864 5864 5863 5862 5862 5862 5861
5845 5846 5845 5846 5848 5851 5852 5853 5854 5856 5863 5869 5871 5873 5874 5873 5872 5871 5871 5869 5867 5868 5872 5876 5877 5878 5877 5877 5877 5879 5880 5880 5880 5882 5883 5885 5886 5888 5889 5890 5891 5892 5893 5893 5893 5893 5893 5893 5893 5892 5892 5892 5891 5890 5889 5888 5886 5885 5884 5883 5882 5882 5880 5879 5879 5878 5877 5876 5876 5875 5874 5874 5874 5873 5873 5873 5872 5872 5871 5871 5870 5869 5869 5869 5868 5868 5867 5867 5866 5865 5864 5863 5863 5862 5862 5861 5861
5841 5842 5842 5842 5843 5845 5848 5850 5851 5854 5859 5865 5868 5870 5871 5871 5870 5870 5870 5869 5868 5867 5869 5872 5874 5875 5874 5874 5875 5877 5879 5878 5879 5882 5883 5885 5886 5887 5887 5888 5890 5892 5892 5892 5892 5892 5892 5892 5892 5892 5892 5891 5891 5889 5888 5887 5886 5884 5883 5882 5882 5881 5880 5879 5878 5878 5877 5876 5875 5875 5874 5873 5873 5873 5873 5872 5872 5871 5871 5870 5870 5869 5868 5868 5868 5867 5867 5867 5866 5865 5864 5863 5863 5862 5861 5861 5861
5837 5838 5839 5838 5838 5840 5843 5846 5849 5851 5854 5860 5865 5867 5868 5869 5868 5869 5869 5869 5869 5867 5867 5868 5871 5872 5872 5872 5873 5875 5877 5878 5879 5880 5882 5884 5885 5886 5886 5885 5888 5891 5891 5891 5891 5891 5891 5891 5891 5891 5891 5890 5890 5889 5888 5886 5885 5883 5882 5881 5881 5880 5879 5879 5878 5877 5876 5875 5875 5874 5873 5873 5872 5872 5872 5872 5871 5871 5870 5870 5869 5868 5868 5868 5867 5867 5866 5866 5866 5865 5864 5863 5862 5862 5861 5861 5860
5832 5834 5835 5834 5834 5835 5838 5842 5846 5848 5850 5855 5860 5864 5866 5867 5866 5867 5868 5868 5868 5866 5865 5866 5869 5871 5871 5871 5871 5872 5874 5876 5877 5879 5881 5883 5885 5885 5884 5883 5886 5890 5891 5891 5890 5890 5890 5890 5890 5890 5890 5889 5889 5888 5887 5885 5884 5883 5881 5880 5879 5879 5878 5878 5877 5876 5875 5874 5874 5873 5873 5872 5872 5872 5872 5871 5871 5870 5870 5869 5868 5868 5867 5867 5867 5866 5866 5865 5865 5865 5864 5863 5862 5862 5861 5860 5860
5828 5829 5830 5830 5829 5831 5835 5838 5842 5846 5848 5850 5855 5860 5863 5864 5863 5865 5867 5866 5866 5865 5863 5865 5868 5869 5869 5869 5869 5870 5871 5874 5875 5877 5880 5882 5883 5884 5883 5882 5884 5888 5890 5890 5889 5889 5889 5889 5889 5889 5888 5888 5888 5887 5886 5884 5883 5882 5881 5880 5879 5878 5877 5877 5876 5875 5874 5873 5873 5872 5872 5872 5872 5871 5871 5871 5870 5870 5869 5868 5868 5867 5867 5866 5866 5865 5865 5865 5864 5864 5863 5863 5862 5861 5860 5860 5859
5823 5824 5825 5825 5826 5828 5830 5833 5838 5842 5844 5847 5851 5857 5860 5860 5860 5863 5864 5864 5864 5863 5861 5863 5865 5865 5867 5867 5866 5867 5869 5871 5873 5875 5878 5880 5881 5882 5882 5881 5882 5885 5888 5889 5889 5888 5888 5887 5887 5888 5887 5887 5886 5885 5884 5883 5882 5881 5880 5879 5878 5877 5876 5876 5876 5874 5873 5872 5872 5871 5872 5872 5871 5871 5871 5870 5869 5869 5868 5868 5867 5866 5866 5865 5865 5865 5864 5864 5864 5863 5862 5862 5861 5861 5860 5859 5858
5818 5821 5821 5820 5822 5823 5825 5828 5833 5836 5840 5846 5849 5852 5855 5855 5857 5860 5861 5861 5861 5861 5859 5860 5861 5862 5864 5865 5865 5866 5867 5869 5871 5873 5875 5878 5879 5880 5880 5879 5880 5883 5886 5887 5887 5887 5886 5886 5886 5886 5886 5886 5885 5884 5883 5882 5881 5881 5880 5879 5878 5877 5876 5875 5875 5874 5872 5872 5871 5871 5871 5871 5871 5870 5870 5869 5869 5868 5867 5867 5866 5865 5865 5864 5864 5864 5864 5863 5863 5862 5861 5861 5861 5860 5859 5858 5858
5813 5816 5816 5814 5815 5818 5820 5822 5828 5831 5836 5843 5846 5848 5850 5851 5854 5856 5857 5857 5859 5857 5855 5857 5858 5860 5862 5863 5864 5863 5864 5866 5869 5870 5873 5875 5877 5878 5878 5878 5879 5881 5884 5885 5886 5886 5885 5885 5885 5885 5884 5884 5884 5883 5882 5881 5881 5880 5879 5879 5878 5876 5875 5875 5874 5873 5872 5871 5870 5870 5870 5870 5870 5870 5869 5868 5868 5867 5866 5866 5865 5865 5864 5864 5863 5863 5863 5862 5862 5861 5861 5860 5860 5859 5859 5858 5857
5808 5810 5810 5808 5809 5812 5816 5818 5822 5826 5832 5840 5843 5844 5844 5847 5850 5851 5854 5855 5855 5853 5852 5854 5856 5857 5859 5861 5862 5861 5861 5864 5866 5868 5870 5873 5874 5875 5877 5878 5879 5880 5882 5884 5884 5884 5883 5883 5883 5883 5883 5883 5882 5882 5881 5880 5880 5879 5878 5877 5876 5875 5874 5874 5873 5872 5871 5871 5870 5869 5869 5869 5869 5868 5868 5867 5867 5866 5865 5865 5864 5864 5863 5863 5862 5862 5862 5861 5861 5860 5860 5859 5859 5859 5858 5857 5856
5802 5803 5803 5801 5802 5806 5811 5815 5818 5822 5829 5834 5838 5841 5841 5844 5847 5847 5850 5851 5851 5850 5849 5851 5852 5853 5855 5857 5859 5859 5859 5862 5865 5867 5869 5871 5872 5873 5875 5876 5877 5879 5880 5882 5882 5882 5882 5881 5881 5881 5881 5881 5881 5880 5880 5879 5879 5878 5877 5876 5875 5874 5873 5873 5872 5872 5871 5870 5869 5869 5869 5868 5868 5867 5867 5866 5866 5865 5865 5864 5864 5863 5862 5862 5862 5861 5861 5860 5860 5859 5859 5858 5858 5858 5857 5856 5854
5795 5796 5796 5794 5797 5802 5807 5812 5815 5820 5825 5829 5833 5837 5839 5841 5843 5844 5846 5847 5847 5847 5845 5846 5847 5849 5852 5853 5855 5856 5858 5861 5862 5864 5867 5869 5870 5871 5873 5874 5876 5877 5878 5879 5880 5880 5880 5879 5879 5879 5879 5879 5879 5879 5878 5878 5877 5876 5875 5874 5873 5872 5872 5872 5871 5871 5870 5869 5869 5869 5868 5867 5866 5866 5866 5865 5865 5864 5864 5863 5863 5862 5862 5861 5861 5860 5860 5859 5859 5858 5858 5857 5857 5857 5856 5854 5853
5788 5790 5789 5788 5794 5800 5805 5808 5811 5816 5820 5825 5828 5832 5835 5837 5839 5839 5840 5842 5842 5842 5841 5842 5843 5846 5848 5849 5851 5854 5856 5859 5860 5862 5865 5867 5868 5870 5871 5872 5874 5876 5877 5877 5877 5878 5878 5878 5878 5878 5878 5878 5878 5877 5877 5876 5875 5875 5874 5873 5872 5871 5870 5870 5870 5870 5869 5869 5868 5868 5867 5866 5865 5865 5864 5864 5864 5863 5863 5862 5862 5861 5861 5860 5860 5859 5859 5858 5857 5857 5857 5856 5856 5855 5854 5853 5852
5783 5784 5781 5784 5792 5796 5800 5803 5806 5811 5815 5819 5823 5827 5830 5833 5834 5834 5835 5837 5838 5837 5838 5840 5840 5841 5844 5845 5848 5850 5853 5856 5859 5861 5863 5865 5866 5868 5869 5870 5872 5874 5875 5875 5875 5876 5876 5876 5876 5876 5876 5876 5876 5876 5875 5875 5874 5873 5872 5871 5871 5870 5869 5869 5869 5869 5868 5868 5867 5867 5866 5865 5864 5864 5863 5863 5862 5862 5862 5861 5861 5860 5859 5859 5859 5858 5858 5857 5856 5856 5855 5855 5854 5854 5853 5851 5851
5778 5776 5776 5784 5790 5790 5794 5798 5802 5806 5809 5813 5818 5822 5825 5828 5830 5829 5830 5831 5832 5834 5835 5837 5837 5838 5840 5842 5845 5846 5850 5854 5857 5860 5861 5863 5864 5865 5867 5868 5870 5872 5873 5873 5873 5873 5874 5874 5874 5874 5874 5875 5874 5874 5874 5873 5872 5871 5870 5870 5869 5869 5868 5868 5868 5868 5867 5866 5866 5866 5865 5864 5864 5863 5862 5861 5861 5860 5860 5860 5859 5859 5858 5858 5857 5857 5856 5856 5855 5855 5854 5854 5853 5852 5851 5850 5850
5770 5771 5775 5781 5784 5783 5788 5794 5798 5800 5804 5807 5812 5816 5821 5825 5825 5825 5826 5826 5828 5833 5835 5836 5835 5836 5839 5840 5841 5843 5848 5853 5854 5856 5858 5860 5862 5863 5865 5866 5868 5870 5871 5871 5870 5871 5871 5872 5872 5873 5873 5873 5873 5872 5872 5871 5870 5870 5869 5869 5868 5867 5867 5867 5867 5866 5866 5865 5864 5864 5864 5863 5862 5861 5860 5860 5859 5859 5858 5858 5858 5858 5857 5856 5856 5855 5855 5854 5854 5853 5852 5852 5852 5851 5850 5849 5848
5764 5768 5773 5775 5776 5778 5783 5788 5791 5794 5797 5800 5805 5812 5817 5819 5820 5821 5823 5824 5828 5834 5836 5835 5831 5832 5839 5840 5840 5842 5846 5849 5851 5853 5854 5856 5859 5861 5862 5864 5866 5867 5868 5868 5868 5869 5869 5869 5870 5871 5871 5871 5871 5871 5870 5869 5869 5868 5868 5867 5867 5866 5866 5866 5866 5865 5864 5863 5863 5862 5862 5862 5861 5860 5859 5859 5858 5858 5857 5857 5856 5856 5855 5855 5855 5854 5853 5853 5852 5852 5851 5851 5850 5849 5848 5848 5847
5758 5763 5769 5769 5770 5772 5777 5781 5784 5788 5790 5793 5799 5805 5810 5813 5817 5818 5819 5822 5827 5831 5832 5831 5827 5828 5836 5838 5838 5840 5843 5845 5847 5849 5850 5852 5855 5858 5859 5861 5863 5865 5865 5866 5866 5867 5867 5867 5867 5868 5869 5869 5869 5869 5869 5868 5867 5867 5867 5866 5865 5865 5865 5865 5864 5863 5862 5861 5861 5861 5860 5860 5859 5858 5858 5858 5857 5856 5855 5855 5855 5854 5854 5853 5853 5852 5851 5851 5851 5850 5849 5849 5849 5848 5847 5846 5845
5752 5758 5764 5764 5763 5765 5770 5773 5776 5781 5784 5788 5792 5796 5802 5808 5813 5814 5815 5819 5823 5826 5826 5826 5825 5824 5829 5833 5836 5838 5839 5841 5843 5845 5848 5850 5852 5854 5856 5858 5860 5862 5862 5863 5864 5865 5865 5865 5865 5866 5867 5867 5867 5867 5867 5866 5866 5866 5865 5864 5864 5864 5863 5863 5863 5862 5860 5859 5859 5859 5858 5858 5857 5857 5856 5856 5856 5855 5854 5854 5853 5853 5852 5852 5851 5851 5850 5850 5849 5848 5848 5847 5847 5847 5846 5844 5843
5748 5752 5756 5756 5755 5757 5760 5763 5768 5773 5778 5783 5785 5788 5795 5803 5808 5807 5810 5815 5818 5822 5822 5821 5822 5821 5823 5828 5833 5835 5836 5838 5839 5842 5846 5847 5849 5852 5853 5855 5857 5858 5859 5860 5861 5862 5863 5863 5864 5864 5864 5865 5866 5866 5865 5865 5865 5864 5863 5863 5862 5862 5862 5861 5860 5859 5858 5858 5858 5857 5857 5857 5856 5855 5855 5855 5854 5854 5853 5853 5852 5851 5851 5850 5850 5849 5848 5848 5847 5846 5846 5846 5846 5846 5844 5843 5841
5743 5743 5745 5746 5746 5748 5752 5755 5761 5766 5770 5776 5779 5781 5788 5797 5800 5799 5805 5811 5814 5818 5817 5816 5818 5819 5822 5825 5829 5832 5833 5835 5837 5840 5841 5843 5846 5849 5851 5852 5853 5855 5856 5858 5860 5860 5861 5862 5862 5862 5863 5864 5864 5864 5864 5863 5863 5862 5861 5861 5861 5860 5860 5859 5858 5857 5856 5856 5856 5856 5855 5855 5854 5854 5853 5853 5853 5852 5852 5852 5851 5850 5849 5849 5848 5847 5847 5846 5846 5845 5845 5845 5845 5844 5843 5842 5841
5732 5732 5734 5736 5739 5742 5745 5748 5753 5759 5763 5769 5775 5777 5780 5787 5790 5793 5801 5807 5811 5814 5812 5812 5815 5817 5819 5822 5825 5827 5829 5832 5834 5836 5838 5841 5844 5846 5848 5849 5850 5852 5854 5856 5858 5859 5860 5860 5860 5860 5861 5862 5863 5863 5862 5862 5862 5861 5860 5859 5859 5859 5858 5857 5855 5854 5854 5854 5854 5854 5853 5853 5852 5852 5851 5851 5851 5850 5850 5850 5850 5849 5848 5848 5847 5846 5846 5845 5844 5844 5843 5843 5843 5842 5841 5840 5839
5721 5723 5724 5727 5731 5733 5738 5743 5748 5752 5756 5765 5771 5770 5769 5774 5782 5790 5796 5802 5806 5808 5808 5808 5811 5814 5817 5820 5823 5824 5826 5828 5830 5833 5836 5839 5841 5843 5846 5847 5848 5850 5852 5853 5855 5857 5857 5858 5858 5859 5859 5860 5861 5861 5860 5860 5860 5859 5858 5858 5858 5857 5856 5854 5853 5853 5853 5852 5852 5852 5851 5851 5850 5850 5850 5849 5849 5848 5848 5848 5848 5848 5847 5847 5846 5845 5844 5844 5843 5843 5842 5841 5840 5840 5840 5839 5838
5712 5716 5715 5719 5722 5723 5733 5739 5743 5746 5750 5760 5763 5759 5759 5767 5778 5788 5793 5796 5800 5801 5803 5804 5806 5810 5813 5816 5819 5821 5823 5824 5828 5831 5833 5836 5839 5841 5843 5845 5846 5847 5849 5851 5853 5854 5854 5856 5856 5856 5857 5858 5859 5859 5858 5858 5858 5857 5857 5856 5856 5855 5854 5852 5850 5851 5851 5850 5850 5849 5849 5849 5848 5848 5848 5847 5847 5847 5846 5846 5847 5846 5846 5846 5845 5844 5843 5843 5842 5842 5841 5840 5839 5838 5838 5838 5837
5704 5706 5707 5711 5712 5717 5729 5734 5737 5740 5745 5754 5754 5749 5754 5764 5773 5783 5790 5792 5794 5796 5798 5799 5802 5805 5809 5812 5815 5817 5819 5821 5825 5828 5829 5832 5835 5839 5841 5843 5844 5845 5847 5849 5850 5851 5852 5853 5854 5854 5855 5856 5857 5856 5856 5855 5855 5855 5855 5855 5854 5853 5852 5850 5849 5849 5849 5848 5848 5847 5847 5847 5847 5847 5846 5846 5845 5845 5845 5845 5845 5845 5845 5844 5844 5843 5842 5842 5841 5840 5839 5838 5837 5837 5836 5836 5835
5695 5696 5699 5704 5705 5712 5722 5725 5729 5734 5741 5747 5743 5742 5751 5760 5767 5777 5785 5788 5790 5792 5793 5795 5798 5802 5805 5808 5811 5813 5816 5818 5821 5823 5825 5829 5832 5836 5839 5841 5842 5843 5845 5846 5847 5848 5849 5850 5851 5851 5852 5853 5854 5854 5853 5853 5853 5853 5853 5853 5852 5851 5850 5849 5847 5847 5847 5847 5846 5845 5845 5845 5845 5845 5844 5844 5844 5844 5844 5843 5843 5843 5843 5842 5842 5841 5841 5840 5839 5838 5837 5837 5836 5836 5835 5834 5833
5687 5687 5691 5697 5699 5706 5714 5718 5723 5729 5735 5737 5734 5737 5746 5754 5762 5770 5777 5783 5786 5787 5788 5790 5794 5798 5801 5803 5806 5809 5812 5814 5816 5818 5822 5826 5829 5832 5836 5838 5840 5841 5842 5843 5844 5845 5846 5847 5847 5848 5849 5851 5852 5851 5851 5850 5851 5850 5850 5850 5849 5849 5848 5847 5845 5845 5845 5844 5844 5843 5843 5843 5842 5842 5842 5841 5842 5842 5842 5842 5842 5841 5841 5840 5840 5839 5839 5838 5837 5836 5835 5836 5835 5834 5834 5833 5832
5680 5681 5684 5691 5693 5698 5703 5710 5717 5722 5725 5727 5728 5732 5739 5749 5758 5764 5769 5776 5779 5781 5784 5786 5789 5793 5796 5799 5802 5804 5807 5808 5811 5815 5819 5823 5827 5829 5832 5835 5836 5838 5840 5841 5842 5842 5843 5844 5844 5845 5846 5848 5849 5848 5848 5848 5848 5848 5847 5847 5847 5846 5846 5844 5843 5842 5843 5842 5842 5841 5841 5840 5840 5840 5840 5839 5839 5840 5840 5840 5840 5839 5838 5838 5837 5837 5836 5836 5835 5834 5834 5834 5834 5833 5832 5831 5831
5674 5676 5677 5682 5686 5688 5692 5700 5709 5714 5715 5719 5722 5725 5733 5743 5751 5757 5763 5768 5771 5776 5780 5782 5785 5789 5791 5794 5797 5799 5802 5804 5807 5811 5815 5820 5824 5826 5828 5831 5833 5835 5837 5838 5840 5840 5840 5841 5841 5842 5843 5845 5846 5845 5845 5845 5845 5845 5844 5844 5844 5844 5843 5842 5841 5840 5840 5840 5839 5839 5838 5838 5838 5838 5837 5837 5837 5838 5838 5838 5838 5837 5836 5835 5835 5835 5834 5834 5834 5833 5833 5833 5832 5832 5831 5830 5829
5666 5668 5669 5672 5676 5679 5684 5691 5700 5706 5707 5710 5715 5720 5728 5736 5743 5750 5756 5761 5765 5770 5775 5777 5780 5784 5787 5790 5792 5795 5797 5800 5804 5808 5810 5815 5820 5823 5825 5827 5830 5832 5834 5836 5837 5837 5838 5838 5838 5839 5841 5842 5843 5842 5842 5842 5842 5841 5841 5842 5842 5842 5841 5840 5838 5838 5838 5837 5837 5837 5836 5836 5836 5836 5835 5835 5835 5835 5836 5836 5836 5835 5834 5834 5834 5833 5833 5832 5832 5832 5831 5831 5831 5830 5829 5829 5828
5655 5659 5661 5663 5667 5671 5677 5684 5692 5699 5701 5704 5710 5715 5722 5729 5736 5743 5748 5753 5758 5763 5768 5771 5775 5780 5782 5785 5788 5791 5794 5798 5801 5803 5806 5810 5814 5818 5821 5824 5826 5828 5831 5833 5834 5834 5835 5835 5835 5836 5838 5839 5840 5839 5839 5839 5838 5838 5839 5839 5839 5839 5838 5837 5836 5836 5836 5835 5835 5835 5834 5834 5835 5835 5834 5833 5833 5833 5834 5834 5834 5834 5833 5833 5832 5832 5831 5831 5830 5830 5830 5829 5829 5828 5827 5827 5826
5646 5649 5652 5656 5659 5664 5671 5676 5682 5690 5693 5698 5705 5709 5715 5722 5728 5735 5741 5745 5750 5757 5762 5765 5771 5777 5779 5782 5784 5788 5792 5794 5796 5798 5802 5805 5808 5811 5815 5819 5823 5825 5827 5829 5830 5831 5831 5832 5832 5833 5835 5836 5837 5836 5836 5835 5834 5835 5836 5836 5836 5836 5835 5835 5834 5834 5834 5833 5833 5832 5832 5832 5832 5833 5833 5832 5831 5832 5832 5832 5832 5833 5832 5831 5831 5830 5830 5829 5828 5828 5828 5827 5827 5826 5825 5825 5825
5638 5641 5644 5648 5653 5659 5665 5670 5676 5681 5684 5691 5699 5702 5707 5715 5721 5727 5732 5737 5742 5751 5757 5760 5766 5772 5776 5778 5781 5784 5787 5789 5791 5794 5797 5801 5804 5806 5810 5814 5819 5822 5825 5826 5827 5828 5829 5829 5830 5831 5832 5833 5833 5833 5833 5832 5832 5833 5834 5834 5834 5833 5832 5832 5832 5832 5831 5831 5830 5830 5830 5829 5830 5830 5830 5830 5830 5830 5831 5831 5831 5831 5830 5830 5829 5828 5828 5827 5827 5826 5826 5825 5825 5825 5824 5823 5823
5632 5635 5637 5640 5648 5654 5657 5665 5672 5675 5678 5685 5692 5695 5699 5706 5711 5717 5724 5731 5737 5744 5751 5756 5761 5767 5772 5775 5777 5780 5782 5784 5787 5791 5794 5798 5801 5803 5806 5810 5814 5819 5822 5822 5823 5825 5826 5826 5827 5828 5829 5830 5830 5830 5829 5829 5829 5830 5831 5831 5831 5830 5830 5830 5830 5829 5829 5829 5828 5828 5827 5827 5827 5827 5827 5827 5828 5828 5828 5829 5828 5828 5828 5827 5826 5826 5825 5825 5825 5825 5824 5823 5823 5823 5822 5822 5822
5627 5630 5632 5636 5643 5647 5652 5661 5668 5670 5673 5679 5686 5688 5689 5695 5702 5709 5717 5724 5731 5737 5744 5750 5755 5762 5768 5771 5773 5775 5778 5780 5783 5787 5791 5794 5797 5800 5803 5806 5811 5815 5818 5820 5821 5822 5822 5822 5823 5824 5825 5826 5827 5826 5826 5826 5827 5828 5828 5828 5828 5827 5827 5827 5827 5827 5827 5826 5826 5825 5825 5825 5824 5824 5824 5824 5825 5825 5825 5826 5825 5825 5825 5824 5824 5823 5823 5824 5824 5823 5822 5822 5821 5821 5821 5821 5821
5623 5625 5629 5633 5639 5643 5648 5657 5663 5664 5666 5673 5681 5680 5680 5688 5695 5702 5710 5716 5723 5731 5738 5743 5749 5756 5761 5764 5767 5770 5773 5775 5778 5782 5787 5791 5794 5797 5799 5803 5807 5812 5815 5817 5818 5818 5818 5819 5820 5820 5822 5823 5823 5823 5823 5823 5824 5825 5826 5826 5825 5825 5824 5824 5825 5825 5825 5824 5823 5823 5822 5822 5822 5822 5822 5822 5822 5822 5822 5823 5823 5822 5822 5822 5821 5821 5821 5822 5822 5821 5821 5820 5820 5820 5820 5819 5819
5617 5621 5627 5631 5635 5640 5644 5651 5655 5656 5659 5668 5674 5673 5675 5683 5689 5695 5703 5708 5716 5725 5731 5737 5743 5749 5754 5757 5761 5764 5768 5770 5773 5777 5781 5785 5789 5792 5796 5800 5805 5809 5812 5814 5814 5814 5814 5815 5816 5817 5818 5819 5819 5820 5820 5820 5821 5822 5823 5823 5822 5822 5822 5822 5822 5823 5822 5821 5821 5820 5820 5820 5820 5819 5819 5819 5819 5819 5820 5820 5820 5820 5819 5819 5819 5819 5819 5819 5819 5819 5819 5819 5818 5818 5818 5818 5818
5613 5618 5623 5627 5632 5636 5640 5647 5649 5651 5657 5662 5665 5667 5668 5673 5682 5691 5698 5703 5709 5718 5725 5731 5737 5744 5749 5753 5756 5759 5763 5765 5768 5771 5775 5780 5784 5788 5792 5797 5802 5805 5808 5810 5810 5810 5811 5811 5812 5813 5814 5815 5816 5816 5817 5817 5818 5819 5820 5820 5820 5820 5819 5820 5820 5820 5819 5819 5818 5818 5818 5818 5817 5817 5817 5817 5817 5817 5817 5818 5818 5817 5817 5817 5817 5816 5817 5817 5817 5817 5817 5817 5817 5817 5817 5816 5816
5611 5616 5619 5623 5628 5632 5637 5642 5645 5651 5655 5653 5657 5662 5662 5665 5676 5686 5693 5698 5703 5710 5719 5726 5731 5738 5744 5748 5752 5755 5758 5761 5764 5767 5771 5775 5780 5785 5790 5795 5798 5801 5804 5806 5806 5806 5807 5808 5808 5809 5811 5811 5812 5813 5813 5814 5815 5816 5817 5817 5817 5817 5817 5817 5818 5818 5817 5816 5816 5816 5816 5816 5816 5815 5815 5815 5814 5815 5815 5815 5815 5815 5815 5815 5814 5814 5814 5814 5814 5815 5815 5815 5815 5815 5815 5815 5814
5609 5613 5614 5618 5623 5627 5632 5635 5639 5646 5645 5644 5653 5659 5657 5660 5670 5679 5685 5691 5696 5703 5713 5721 5727 5734 5739 5743 5748 5751 5754 5757 5760 5764 5768 5773 5778 5783 5788 5791 5794 5797 5800 5801 5801 5803 5804 5804 5805 5806 5807 5808 5809 5810 5810 5811 5812 5813 5814 5814 5815 5815 5815 5815 5815 5815 5814 5814 5814 5814 5814 5814 5813 5813 5813 5813 5813 5813 5813 5812 5812 5812 5811 5812 5812 5811 5812 5812 5812 5812 5813 5813 5813 5813 5813 5813 5813
5606 5608 5610 5614 5619 5624 5627 5629 5635 5637 5633 5637 5650 5655 5654 5655 5663 5672 5678 5685 5692 5699 5708 5715 5723 5729 5734 5738 5743 5746 5750 5753 5757 5761 5765 5770 5775 5779 5783 5786 5789 5793 5795 5796 5798 5800 5801 5802 5802 5803 5804 5805 5806 5806 5807 5809 5810 5810 5811 5812 5813 5813 5813 5813 5813 5813 5812 5812 5811 5812 5812 5812 5811 5811 5811 5811 5811 5811 5810 5810 5810 5809 5809 5809 5809 5809 5809 5810 5810 5811 5811 5811 5811 5811 5811 5811 5811
5603 5605 5607 5610 5614 5620 5623 5625 5629 5628 5626 5634 5647 5653 5652 5650 5657 5668 5674 5681 5689 5696 5703 5711 5718 5724 5729 5734 5739 5742 5746 5750 5753 5757 5762 5766 5770 5774 5777 5781 5785 5789 5791 5793 5795 5797 5798 5799 5799 5800 5801 5801 5802 5803 5805 5806 5807 5808 5809 5810 5810 5810 5810 5810 5810 5810 5810 5810 5809 5809 5810 5810 5810 5809 5809 5809 5809 5808 5808 5808 5808 5807 5807 5807 5807 5807 5807 5808 5808 5809 5809 5809 5809 5809 5809 5809 5809
5602 5604 5605 5608 5611 5615 5617 5620 5623 5623 5625 5635 5644 5650 5648 5647 5656 5668 5672 5678 5685 5692 5701 5708 5713 5719 5725 5730 5735 5738 5742 5746 5749 5753 5757 5762 5765 5769 5773 5777 5782 5785 5787 5789 5791 5793 5794 5795 5796 5797 5797 5798 5799 5800 5802 5803 5804 5805 5806 5807 5808 5808 5808 5808 5808 5808 5808 5808 5808 5808 5808 5808 5808 5807 5807 5807 5806 5806 5806 5806 5806 5805 5805 5805 5805 5805 5805 5806 5806 5806 5807 5806 5806 5806 5807 5807 5807
5601 5603 5604 5606 5609 5611 5613 5616 5620 5622 5627 5635 5643 5644 5641 5644 5655 5665 5671 5676 5682 5689 5698 5705 5710 5715 5720 5727 5732 5736 5739 5741 5745 5749 5753 5757 5761 5766 5770 5774 5777 5781 5783 5784 5786 5789 5791 5792 5793 5794 5794 5795 5796 5798 5799 5801 5802 5803 5804 5805 5805 5805 5805 5806 5806 5806 5806 5806 5806 5806 5806 5806 5805 5805 5805 5805 5805 5804 5804 5804 5804 5803 5803 5803 5803 5803 5803 5804 5804 5804 5804 5804 5805 5805 5805 5805 5805
5598 5601 5601 5603 5605 5608 5611 5615 5618 5621 5627 5635 5640 5638 5636 5641 5651 5661 5669 5676 5681 5687 5693 5699 5705 5711 5718 5724 5728 5732 5735 5738 5741 5745 5749 5753 5758 5763 5767 5770 5773 5776 5777 5779 5782 5785 5787 5789 5790 5790 5791 5792 5794 5795 5797 5798 5799 5800 5801 5802 5802 5803 5803 5803 5803 5804 5804 5804 5804 5804 5804 5804 5803 5803 5803 5803 5803 5802 5802 5802 5802 5801 5801 5802 5802 5802 5802 5802 5802 5802 5802 5802 5803 5803 5803 5804 5803
5595 5598 5599 5601 5604 5606 5609 5614 5618 5622 5625 5630 5634 5633 5634 5641 5650 5660 5668 5673 5679 5685 5689 5694 5701 5707 5713 5717 5721 5726 5730 5733 5736 5740 5745 5750 5755 5759 5762 5766 5769 5771 5773 5775 5778 5781 5784 5786 5786 5787 5788 5790 5791 5793 5794 5795 5796 5798 5799 5799 5799 5800 5801 5801 5801 5802 5802 5802 5802 5802 5802 5802 5802 5802 5801 5801 5800 5800 5800 5800 5801 5801 5800 5800 5800 5800 5800 5800 5799 5800 5800 5800 5800 5801 5801 5801 5801
5591 5594 5596 5600 5603 5605 5609 5614 5618 5621 5622 5626 5630 5630 5634 5641 5650 5659 5666 5670 5676 5681 5685 5691 5697 5703 5707 5710 5715 5721 5725 5729 5733 5737 5742 5747 5751 5755 5758 5762 5765 5767 5769 5772 5775 5778 5780 5782 5782 5783 5785 5787 5789 5790 5791 5793 5794 5795 5796 5796 5797 5798 5799 5799 5799 5799 5800 5800 5800 5800 5800 5800 5800 5800 5799 5799 5798 5798 5798 5798 5799 5799 5799 5798 5798 5798 5798 5798 5798 5798 5798 5798 5798 5799 5799 5799 5799
5588 5591 5595 5598 5601 5604 5609 5612 5616 5618 5621 5626 5631 5631 5635 5642 5650 5658 5665 5670 5675 5679 5683 5689 5694 5698 5701 5705 5712 5718 5722 5725 5730 5735 5739 5743 5747 5750 5754 5758 5761 5763 5766 5769 5772 5774 5776 5777 5778 5780 5782 5785 5786 5787 5789 5790 5791 5792 5793 5794 5795 5796 5796 5796 5797 5797 5798 5798 5798 5798 5798 5798 5798 5798 5797 5797 5796 5796 5796 5796 5797 5797 5797 5796 5796 5796 5796 5796 5796 5796 5796 5796 5796 5797 5797 5797 5796
5589 5592 5595 5597 5599 5603 5607 5610 5613 5616 5621 5626 5630 5632 5636 5643 5650 5657 5664 5670 5675 5679 5683 5686 5690 5693 5697 5702 5709 5714 5718 5721 5726 5731 5735 5738 5742 5745 5749 5753 5757 5760 5763 5765 5767 5769 5771 5772 5774 5777 5780 5782 5783 5784 5786 5787 5789 5790 5791 5791 5792 5793 5794 5794 5795 5795 5796 5796 5796 5796 5795 5796 5796 5796 5795 5795 5794 5794 5794 5794 5794 5794 5794 5794 5794 5794 5794 5794 5794 5794 5794 5794 5794 5795 5795 5795 5794
5590 5593 5594 5595 5597 5600 5604 5608 5612 5616 5620 5624 5627 5631 5637 5643 5650 5657 5663 5669 5675 5678 5682 5685 5687 5690 5694 5699 5704 5709 5713 5717 5722 5727 5731 5734 5737 5741 5746 5750 5753 5756 5759 5761 5762 5764 5767 5769 5771 5774 5777 5778 5779 5781 5783 5785 5786 5787 5788 5789 5790 5791 5792 5792 5792 5793 5793 5793 5794 5793 5793 5793 5794 5793 5793 5792 5792 5792 5792 5792 5792 5792 5792 5791 5791 5791 5791 5791 5791 5791 5791 5792 5792 5793 5793 5793 5792
5589 5591 5592 5595 5598 5600 5603 5608 5612 5615 5619 5622 5624 5628 5634 5642 5650 5657 5662 5666 5668 5670 5674 5679 5684 5688 5691 5695 5700 5704 5708 5713 5719 5723 5726 5729 5733 5738 5742 5746 5749 5751 5754 5756 5758 5761 5763 5766 5769 5772 5774 5775 5777 5778 5780 5782 5783 5784 5785 5786 5788 5789 5789 5789 5790 5790 5790 5791 5791 5791 5791 5791 5791 5791 5790 5790 5790 5790 5789 5789 5790 5789 5789 5789 5789 5789 5789 5789 5789 5789 5789 5790 5790 5791 5791 5791 5790
5588 5591 5593 5597 5600 5602 5604 5608 5612 5615 5618 5621 5623 5626 5633 5642 5647 5651 5655 5658 5660 5662 5665 5671 5679 5685 5688 5692 5696 5700 5704 5709 5715 5720 5723 5726 5730 5734 5737 5741 5744 5746 5749 5751 5754 5757 5760 5763 5766 5768 5770 5772 5774 5775 5778 5779 5781 5782 5783 5784 5785 5786 5787 5787 5787 5788 5788 5788 5789 5789 5789 5789 5788 5788 5788 5787 5787 5787 5787 5787 5787 5787 5787 5786 5786 5787 5787 5787 5787 5787 5788 5788 5789 5789 5789 5788 5787